CW2927 Weather Reports


time (UTC)temp
C
wind
direction
speed
KPH
gust
KPH
rain 1hr
cm
rain 24hr
cm
rain mn
cm
humidity
%
barometer
mb
20210414110705 4 111 0.0 0.0 0.00 0.00 0.00 71 1017.7
20210414110432 4 85 0.0 0.0 0.00 0.00 0.00 71 1017.7
20210414104708 4 104 0.0 0.0 0.00 0.00 0.00 71 1017.6
20210414104216 4 105 0.0 0.0 0.00 0.00 0.00 71 1017.6
20210414102910 4 92 0.0 0.0 0.00 0.00 0.00 70 1017.5
20210414102645 4 94 0.0 0.0 0.00 0.00 0.00 70 1017.5
20210414100707 4 91 0.0 0.0 0.00 0.00 0.00 69 1017.3
20210414100225 4 94 0.0 0.0 0.00 0.00 0.00 69 1017.3
20210414094709 4 94 0.0 0.0 0.00 0.00 0.00 68 1017.3
20210414094217 4 94 0.0 0.0 0.00 0.00 0.00 68 1017.3
20210414092901 5 94 0.0 0.0 0.00 0.00 0.00 67 1017.2
20210414092642 5 94 0.0 0.0 0.00 0.00 0.00 67 1017.2
20210414090716 5 96 0.0 0.0 0.00 0.00 0.00 66 1017.1
20210414090227 5 99 0.0 0.0 0.00 0.00 0.00 66 1017.1
20210414084705 5 100 0.0 0.0 0.00 0.00 0.00 66 1017.1
20210414084209 5 100 0.0 0.0 0.00 0.00 0.00 66 1017.1
20210414082820 5 103 0.0 0.0 0.00 0.00 0.00 66 1017.0
20210414082452 5 103 0.0 0.0 0.00 0.00 0.00 66 1017.0
20210414080706 5 105 0.0 0.0 0.00 0.00 0.00 65 1017.1
20210414080208 5 108 0.0 0.0 0.00 0.00 0.00 65 1017.1
20210414074807 5 109 0.0 0.0 0.00 0.00 0.00 64 1017.1
20210414074214 5 110 0.0 0.0 0.00 0.00 0.00 64 1017.1
20210414072848 6 94 0.0 0.0 0.00 0.00 0.00 63 1017.1
20210414072641 6 94 0.0 0.0 0.00 0.00 0.00 63 1017.1
20210414070705 6 92 0.0 0.0 0.00 0.00 0.00 62 1017.1
20210414070221 6 91 0.0 0.0 0.00 0.00 0.00 62 1017.0
20210414064705 7 92 0.0 0.0 0.00 0.00 0.00 61 1017.1
20210414064217 7 90 0.0 0.0 0.00 0.00 0.00 61 1017.1
20210414062850 7 87 0.0 0.0 0.00 0.00 0.00 60 1017.1
20210414062444 7 89 0.0 0.0 0.00 0.00 0.00 60 1017.1
20210414060711 7 97 0.0 0.0 0.00 0.00 0.00 59 1017.0
20210414060313 7 98 0.0 0.0 0.00 0.00 0.00 59 1017.0
20210414054710 7 104 0.0 0.0 0.00 0.00 0.00 57 1017.1
20210414054215 7 104 0.0 0.0 0.00 0.00 0.00 57 1017.1
20210414052902 7 82 0.0 0.0 0.00 0.00 0.00 56 1017.2
20210414052701 7 92 0.0 0.0 0.00 0.00 0.00 55 1017.3
20210414050706 7 103 0.0 0.0 0.00 0.00 0.00 54 1017.2
20210414050336 7 108 0.0 0.0 0.00 0.00 0.00 53 1017.2
20210414044706 8 93 0.0 0.0 0.00 0.00 0.00 52 1017.3
20210414044211 8 89 0.0 0.0 0.00 0.00 0.00 52 1017.2
20210414042926 8 95 0.0 0.0 0.00 0.00 0.00 53 1017.2
20210414042702 8 78 0.0 0.0 0.00 0.00 0.00 53 1017.1
20210414040739 8 80 0.0 0.0 0.00 0.00 0.00 54 1017.3
20210414040422 8 82 0.0 0.0 0.00 0.00 0.00 55 1017.3
20210414034706 8 87 0.0 0.0 0.00 0.00 0.00 55 1017.4
20210414034208 8 85 0.0 0.0 0.00 0.00 0.00 55 1017.4
20210414033221 8 72 0.0 0.0 0.00 0.00 0.00 55 1017.3
20210414033025 8 81 0.0 0.0 0.00 0.00 0.00 55 1017.3
20210414030710 9 77 0.0 0.0 0.00 0.00 0.00 54 1017.4
20210414030212 9 74 0.0 0.0 0.00 0.00 0.00 54 1017.4
20210414024729 10 71 0.0 0.0 0.00 0.00 0.00 52 1017.6
20210414024213 10 70 0.0 0.0 0.00 0.00 0.00 52 1017.6
20210414022944 10 81 0.0 0.0 0.00 0.00 0.00 52 1017.5
20210414022734 10 84 0.0 0.0 0.00 0.00 0.00 51 1017.5
20210414020705 11 84 0.0 0.0 0.00 0.00 0.00 51 1017.4
20210414020205 11 79 0.0 0.0 0.00 0.00 0.00 51 1017.4
20210414014726 11 61 0.0 0.0 0.00 0.00 0.00 50 1017.4
20210414014217 11 86 0.0 0.0 0.00 0.00 0.00 50 1017.3
20210414013129 12 62 0.0 0.0 0.00 0.00 0.00 49 1017.4
20210414012634 12 83 0.0 0.0 0.00 0.00 0.00 49 1017.3
20210414010712 12 97 0.0 0.0 0.00 0.00 0.00 47 1017.2
20210414004720 13 83 0.0 0.0 0.00 0.00 0.00 44 1017.3
20210414004231 13 98 0.0 0.0 0.00 0.00 0.00 43 1017.2
20210414002749 13 105 0.0 0.0 0.00 0.00 0.00 43 1017.1
20210414000707 14 100 0.0 0.0 0.00 0.00 0.00 43 1017.0
20210414000217 14 89 0.0 0.0 0.00 0.00 0.00 44 1016.9
20210413234705 15 107 0.0 0.0 0.00 0.00 0.00 46 1016.7
20210413234221 15 106 0.0 0.0 0.00 0.00 0.00 47 1016.7
20210413233134 15 111 0.0 0.0 0.00 0.00 0.00 46 1016.6
20210413232801 15 98 0.0 0.0 0.00 0.00 0.00 46 1016.5
20210413230710 16 112 0.0 0.0 0.00 0.00 0.00 46 1016.5
20210413230346 16 101 0.0 0.0 0.00 0.00 0.00 46 1016.5
20210413224942 16 111 0.0 0.0 0.00 0.00 0.00 45 1016.6
20210413224227 16 100 0.0 0.0 0.00 0.00 0.00 44 1016.5
20210413223023 17 129 0.0 0.0 0.00 0.00 0.00 43 1016.5
20210413222905 17 99 0.0 0.0 0.00 0.00 0.00 43 1016.5
20210413220711 17 89 0.0 0.0 0.00 0.00 0.00 43 1016.4
20210413220438 17 134 0.0 0.0 0.00 0.00 0.00 44 1016.4
20210413214721 17 79 0.0 0.0 0.00 0.00 0.00 43 1016.4
20210413214219 17 71 0.0 0.0 0.00 0.00 0.00 44 1016.4
20210413212935 18 121 0.0 0.0 0.00 0.00 0.00 45 1016.4
20210413212819 18 116 0.0 0.0 0.00 0.00 0.00 46 1016.4
20210413210706 18 109 0.0 0.0 0.00 0.00 0.00 47 1016.3
20210413210210 18 113 0.0 0.0 0.00 0.00 0.00 48 1016.3
20210413204709 18 79 0.0 0.0 0.00 0.00 0.00 48 1016.3
20210413204210 18 117 0.0 0.0 0.00 0.00 0.00 49 1016.2
20210413203031 18 79 0.0 0.0 0.00 0.00 0.00 48 1016.3
20210413202624 18 67 0.0 0.0 0.00 0.00 0.00 48 1016.3
20210413200713 18 102 0.0 0.0 0.00 0.00 0.00 48 1016.5
20210413200354 18 68 0.0 0.0 0.00 0.00 0.00 48 1016.5
20210413194705 18 57 0.0 0.0 0.00 0.00 0.00 48 1016.5
20210413194210 18 111 0.0 0.0 0.00 0.00 0.00 48 1016.5
20210413193043 18 105 0.0 0.0 0.00 0.00 0.00 50 1016.5
20210413192841 17 76 0.0 0.0 0.00 0.00 0.00 49 1016.6
20210413190723 18 80 0.0 0.0 0.00 0.00 0.00 49 1016.7
20210413190217 18 93 0.0 0.0 0.00 0.00 0.00 49 1016.7
20210413184724 17 77 0.0 0.0 0.00 0.00 0.00 51 1016.8
20210413184301 17 63 0.0 0.0 0.00 0.00 0.00 50 1016.9
20210413182919 17 51 0.0 0.0 0.00 0.00 0.00 51 1017.2
20210413182658 17 61 0.0 0.0 0.00 0.00 0.00 51 1017.3
20210413180705 17 62 0.0 0.0 0.00 0.00 0.00 50 1017.5
20210413180216 17 133 0.0 0.0 0.00 0.00 0.00 51 1017.5
20210413174708 17 90 0.0 0.0 0.00 0.00 0.00 51 1017.7
20210413174209 17 112 0.0 0.0 0.00 0.00 0.00 51 1017.8
20210413172937 16 130 0.0 0.0 0.00 0.00 0.00 52 1017.9
20210413172817 16 118 0.0 0.0 0.00 0.00 0.00 53 1017.9
20210413170719 16 63 0.0 0.0 0.00 0.00 0.00 54 1018.1
20210413170238 16 114 0.0 0.0 0.00 0.00 0.00 54 1018.2
20210413164704 16 67 0.0 0.0 0.00 0.00 0.00 53 1018.2
20210413164218 16 38 0.0 0.0 0.00 0.00 0.00 55 1018.2
20210413163105 15 66 0.0 0.0 0.00 0.00 0.00 55 1018.4
20210413162914 15 60 0.0 0.0 0.00 0.00 0.00 55 1018.5
20210413160705 15 116 0.0 0.0 0.00 0.00 0.00 56 1018.5
20210413160345 15 123 0.0 0.0 0.00 0.00 0.00 55 1018.6
20210413154705 15 80 0.0 0.0 0.00 0.00 0.00 57 1018.7
20210413154216 15 114 0.0 0.0 0.00 0.00 0.00 57 1018.8
20210413153033 14 118 0.0 0.0 0.00 0.00 0.00 59 1018.9
20210413152838 14 88 0.0 0.0 0.00 0.00 0.00 59 1018.9
20210413150714 13 95 0.0 0.0 0.00 0.00 0.00 59 1019.1
20210413144707 13 66 0.0 0.0 0.00 0.00 0.00 61 1019.2
20210413144217 13 121 0.0 0.0 0.00 0.00 0.00 61 1019.2
20210413143100 12 75 0.0 0.0 0.00 0.00 0.00 62 1019.3
20210413142706 12 86 0.0 0.0 0.00 0.00 0.00 62 1019.4
20210413140704 12 113 0.0 0.0 0.00 0.00 0.00 65 1019.4
20210413140236 12 81 0.0 0.0 0.00 0.00 0.00 64 1019.5
20210413134709 11 108 0.0 0.0 0.00 0.00 0.00 68 1019.5
20210413134210 11 79 0.0 0.0 0.00 0.00 0.00 68 1019.6
20210413133054 11 134 0.0 0.0 0.00 0.00 0.00 69 1019.6
20210413132829 11 67 0.0 0.0 0.00 0.00 0.00 69 1019.5
20210413130705 10 108 0.0 0.0 0.00 0.00 0.00 70 1019.6
20210413130223 10 81 0.0 0.0 0.00 0.00 0.00 70 1019.6
20210413125038 10 103 0.0 0.0 0.00 0.00 0.00 72 1019.6
20210413124215 10 102 0.0 0.0 0.00 0.00 0.00 73 1019.6
20210413123034 9 87 0.0 0.0 0.00 0.00 0.00 73 1019.6
20210413120714 8 118 0.0 0.0 0.00 0.00 0.00 77 1019.5
20210413120220 8 92 0.0 0.0 0.00 0.00 0.00 78 1019.6
20210413114830 8 84 0.0 0.0 0.00 0.00 0.00 80 1019.7
20210413114221 8 83 0.0 0.0 0.00 0.00 0.00 80 1019.6
20210413113037 7 84 0.0 0.0 0.00 0.00 0.00 83 1019.4